Year,Month,Day,Hour,Minute,Value (Times are PST for temperature in C)
2010,07,23,00,00,16.60
2010,07,23,00,01,16.60
2010,07,23,00,02,16.60
2010,07,23,00,03,16.60
2010,07,23,00,04,16.60
2010,07,23,00,05,16.50
2010,07,23,00,06,16.50
2010,07,23,00,07,16.50
2010,07,23,00,08,16.50
2010,07,23,00,09,16.40
2010,07,23,00,10,16.40
2010,07,23,00,11,16.40
2010,07,23,00,12,16.40
2010,07,23,00,13,16.40
2010,07,23,00,14,16.40
2010,07,23,00,15,16.30
2010,07,23,00,16,16.30
2010,07,23,00,17,16.30
2010,07,23,00,18,16.30
2010,07,23,00,19,16.30
2010,07,23,00,20,16.20
2010,07,23,00,21,16.20
2010,07,23,00,22,16.20
2010,07,23,00,23,16.20
2010,07,23,00,24,16.20
2010,07,23,00,25,16.10
2010,07,23,00,26,16.10
2010,07,23,00,27,16.10
2010,07,23,00,28,16.10
2010,07,23,00,29,16.10
2010,07,23,00,30,16.00
2010,07,23,00,31,16.00
2010,07,23,00,32,16.00
2010,07,23,00,33,16.00
2010,07,23,00,34,16.00
2010,07,23,00,35,16.00
2010,07,23,00,36,15.90
2010,07,23,00,37,15.90
2010,07,23,00,38,15.90
2010,07,23,00,39,15.90
2010,07,23,00,40,15.90
2010,07,23,00,41,15.90
2010,07,23,00,42,15.90
2010,07,23,00,43,15.90
2010,07,23,00,44,15.80
2010,07,23,00,45,15.80
2010,07,23,00,46,15.80
2010,07,23,00,47,15.80
2010,07,23,00,48,15.80
2010,07,23,00,49,15.80
2010,07,23,00,50,15.80
2010,07,23,00,51,15.80
2010,07,23,00,52,15.80
2010,07,23,00,53,15.80
2010,07,23,00,54,15.80
2010,07,23,00,55,15.80
2010,07,23,00,56,15.80
2010,07,23,00,57,15.80
2010,07,23,00,58,15.80
2010,07,23,00,59,15.80
2010,07,23,01,00,15.80
2010,07,23,01,01,15.80
2010,07,23,01,02,15.80
2010,07,23,01,03,15.80
2010,07,23,01,04,15.80
2010,07,23,01,05,15.80
2010,07,23,01,06,15.80
2010,07,23,01,07,15.80
2010,07,23,01,08,15.90
2010,07,23,01,09,15.90
2010,07,23,01,10,15.90
2010,07,23,01,11,15.90
2010,07,23,01,12,15.90
2010,07,23,01,13,15.90
2010,07,23,01,14,15.90
2010,07,23,01,15,15.90
2010,07,23,01,16,15.90
2010,07,23,01,17,15.90
2010,07,23,01,18,15.90
2010,07,23,01,19,15.90
2010,07,23,01,20,15.90
2010,07,23,01,21,15.90
2010,07,23,01,22,15.90
2010,07,23,01,23,15.90
2010,07,23,01,24,15.90
2010,07,23,01,25,15.90
2010,07,23,01,26,15.90
2010,07,23,01,27,15.80
2010,07,23,01,28,15.80
2010,07,23,01,29,15.80
2010,07,23,01,30,15.80
2010,07,23,01,31,15.70
2010,07,23,01,32,15.70
2010,07,23,01,33,15.70
2010,07,23,01,34,15.60
2010,07,23,01,35,15.60
2010,07,23,01,36,15.60
2010,07,23,01,37,15.60
2010,07,23,01,38,15.60
2010,07,23,01,39,15.50
2010,07,23,01,40,15.50
2010,07,23,01,41,15.50
2010,07,23,01,42,15.50
2010,07,23,01,43,15.40
2010,07,23,01,44,15.40
2010,07,23,01,45,15.40
2010,07,23,01,46,15.40
2010,07,23,01,47,15.30
2010,07,23,01,48,15.30
2010,07,23,01,49,15.30
2010,07,23,01,50,15.30
2010,07,23,01,51,15.30
2010,07,23,01,52,15.30
2010,07,23,01,53,15.30
2010,07,23,01,54,15.30
2010,07,23,01,55,15.30
2010,07,23,01,56,15.30
2010,07,23,01,57,15.30
2010,07,23,01,58,15.30
2010,07,23,01,59,15.30
2010,07,23,02,00,15.30
2010,07,23,02,01,15.30
2010,07,23,02,02,15.30
2010,07,23,02,03,15.30
2010,07,23,02,04,15.30
2010,07,23,02,05,15.30
2010,07,23,02,06,15.30
2010,07,23,02,07,15.30
2010,07,23,02,08,15.20
2010,07,23,02,09,15.20
2010,07,23,02,10,15.20
2010,07,23,02,11,15.20
2010,07,23,02,12,15.20
2010,07,23,02,13,15.20
2010,07,23,02,14,15.20
2010,07,23,02,15,15.10
2010,07,23,02,16,15.10
2010,07,23,02,17,15.00
2010,07,23,02,18,15.00
2010,07,23,02,19,15.00
2010,07,23,02,20,15.00
2010,07,23,02,21,14.90
2010,07,23,02,22,14.80
2010,07,23,02,23,14.80
2010,07,23,02,24,14.80
2010,07,23,02,25,14.70
2010,07,23,02,26,14.70
2010,07,23,02,27,14.60
2010,07,23,02,28,14.60
2010,07,23,02,29,14.60
2010,07,23,02,30,14.50
2010,07,23,02,31,14.50
2010,07,23,02,32,14.50
2010,07,23,02,33,14.50
2010,07,23,02,34,14.50
2010,07,23,02,35,14.50
2010,07,23,02,36,14.50
2010,07,23,02,37,14.50
2010,07,23,02,38,14.60
2010,07,23,02,39,14.60
2010,07,23,02,40,14.60
2010,07,23,02,41,14.60
2010,07,23,02,42,14.60
2010,07,23,02,43,14.60
2010,07,23,02,44,14.60
2010,07,23,02,45,14.60
2010,07,23,02,46,14.60
2010,07,23,02,47,14.60
2010,07,23,02,48,14.60
2010,07,23,02,49,14.60
2010,07,23,02,50,14.60
2010,07,23,02,51,14.60
2010,07,23,02,52,14.60
2010,07,23,02,53,14.60
2010,07,23,02,54,14.60
2010,07,23,02,55,14.50
2010,07,23,02,56,14.50
2010,07,23,02,57,14.40
2010,07,23,02,58,14.40
2010,07,23,02,59,14.40
2010,07,23,03,00,14.30
2010,07,23,03,01,14.30
2010,07,23,03,02,14.20
2010,07,23,03,03,14.20
2010,07,23,03,04,14.10
2010,07,23,03,05,14.10
2010,07,23,03,06,14.10
2010,07,23,03,07,14.10
2010,07,23,03,08,14.10
2010,07,23,03,09,14.10
2010,07,23,03,10,14.10
2010,07,23,03,11,14.20
2010,07,23,03,12,14.30
2010,07,23,03,13,14.30
2010,07,23,03,14,14.40
2010,07,23,03,15,14.40
2010,07,23,03,16,14.40
2010,07,23,03,17,14.40
2010,07,23,03,18,14.40
2010,07,23,03,19,14.30
2010,07,23,03,20,14.30
2010,07,23,03,21,14.30
2010,07,23,03,22,14.30
2010,07,23,03,23,14.30
2010,07,23,03,24,14.30
2010,07,23,03,25,14.40
2010,07,23,03,26,14.50
2010,07,23,03,27,14.60
2010,07,23,03,28,14.60
2010,07,23,03,29,14.70
2010,07,23,03,30,14.70
2010,07,23,03,31,14.70
2010,07,23,03,32,14.70
2010,07,23,03,33,14.70
2010,07,23,03,34,14.70
2010,07,23,03,35,14.70
2010,07,23,03,36,14.70
2010,07,23,03,37,14.70
2010,07,23,03,38,14.70
2010,07,23,03,39,14.70
2010,07,23,03,40,14.70
2010,07,23,03,41,14.60
2010,07,23,03,42,14.60
2010,07,23,03,43,14.60
2010,07,23,03,44,14.50
2010,07,23,03,45,14.40
2010,07,23,03,46,14.40
2010,07,23,03,47,14.30
2010,07,23,03,48,14.30
2010,07,23,03,49,14.20
2010,07,23,03,50,14.20
2010,07,23,03,51,14.20
2010,07,23,03,52,14.10
2010,07,23,03,53,14.10
2010,07,23,03,54,14.10
2010,07,23,03,55,14.10
2010,07,23,03,56,14.10
2010,07,23,03,57,14.00
2010,07,23,03,58,14.00
2010,07,23,03,59,14.00
2010,07,23,04,00,13.90
2010,07,23,04,01,13.90
2010,07,23,04,02,13.90
2010,07,23,04,03,13.90
2010,07,23,04,04,13.80
2010,07,23,04,05,13.80
2010,07,23,04,06,13.80
2010,07,23,04,07,13.80
2010,07,23,04,08,13.80
2010,07,23,04,09,13.80
2010,07,23,04,10,13.80
2010,07,23,04,11,13.80
2010,07,23,04,12,13.80
2010,07,23,04,13,13.80
2010,07,23,04,14,13.80
2010,07,23,04,15,13.80
2010,07,23,04,16,13.80
2010,07,23,04,17,13.80
2010,07,23,04,18,13.80
2010,07,23,04,19,13.80
2010,07,23,04,20,13.80
2010,07,23,04,21,13.80
2010,07,23,04,22,13.80
2010,07,23,04,23,13.80
2010,07,23,04,24,13.70
2010,07,23,04,25,13.70
2010,07,23,04,26,13.70
2010,07,23,04,27,13.70
2010,07,23,04,28,13.70
2010,07,23,04,29,13.70
2010,07,23,04,30,13.80
2010,07,23,04,31,13.80
2010,07,23,04,32,13.80
2010,07,23,04,33,13.80
2010,07,23,04,34,13.80
2010,07,23,04,35,13.80
2010,07,23,04,36,13.80
2010,07,23,04,37,13.80
2010,07,23,04,38,13.80
2010,07,23,04,39,13.80
2010,07,23,04,40,13.80
2010,07,23,04,41,13.80
2010,07,23,04,42,13.70
2010,07,23,04,43,13.80
2010,07,23,04,44,13.70
2010,07,23,04,45,13.70
2010,07,23,04,46,13.70
2010,07,23,04,47,13.70
2010,07,23,04,48,13.70
2010,07,23,04,49,13.70
2010,07,23,04,50,13.70
2010,07,23,04,51,13.70
2010,07,23,04,52,13.70
2010,07,23,04,53,13.70
2010,07,23,04,54,13.70
2010,07,23,04,55,13.70
2010,07,23,04,56,13.70
2010,07,23,04,57,13.70
2010,07,23,04,58,13.70
2010,07,23,04,59,13.70
2010,07,23,05,00,13.70
2010,07,23,05,01,13.70
2010,07,23,05,02,13.70
2010,07,23,05,03,13.70
2010,07,23,05,04,13.70
2010,07,23,05,05,13.70
2010,07,23,05,06,13.70
2010,07,23,05,07,13.70
2010,07,23,05,08,13.70
2010,07,23,05,09,13.80
2010,07,23,05,10,13.80
2010,07,23,05,11,13.80
2010,07,23,05,12,13.80
2010,07,23,05,13,13.80
2010,07,23,05,14,13.90
2010,07,23,05,15,13.90
2010,07,23,05,16,13.90
2010,07,23,05,17,13.90
2010,07,23,05,18,13.90
2010,07,23,05,19,13.90
2010,07,23,05,20,13.90
2010,07,23,05,21,13.90
2010,07,23,05,22,13.90
2010,07,23,05,23,13.90
2010,07,23,05,24,13.90
2010,07,23,05,25,13.90
2010,07,23,05,26,13.90
2010,07,23,05,27,13.90
2010,07,23,05,28,13.90
2010,07,23,05,29,13.90
2010,07,23,05,30,13.80
2010,07,23,05,31,13.80
2010,07,23,05,32,13.80
2010,07,23,05,33,13.80
2010,07,23,05,34,13.80
2010,07,23,05,35,13.80
2010,07,23,05,36,13.80
2010,07,23,05,37,13.80
2010,07,23,05,38,13.70
2010,07,23,05,39,13.70
2010,07,23,05,40,13.70
2010,07,23,05,41,13.60
2010,07,23,05,42,13.60
2010,07,23,05,43,13.50
2010,07,23,05,44,13.50
2010,07,23,05,45,13.40
2010,07,23,05,46,13.40
2010,07,23,05,47,13.40
2010,07,23,05,48,13.30
2010,07,23,05,49,13.30
2010,07,23,05,50,13.30
2010,07,23,05,51,13.30
2010,07,23,05,52,13.30
2010,07,23,05,53,13.30
2010,07,23,05,54,13.30
2010,07,23,05,55,13.30
2010,07,23,05,56,13.30
2010,07,23,05,57,13.30
2010,07,23,05,58,13.30
2010,07,23,05,59,13.40
2010,07,23,06,00,13.40
2010,07,23,06,01,13.40
2010,07,23,06,02,13.50
2010,07,23,06,03,13.50
2010,07,23,06,04,13.60
2010,07,23,06,05,13.60
2010,07,23,06,06,13.70
2010,07,23,06,07,13.70
2010,07,23,06,08,13.70
2010,07,23,06,09,13.80
2010,07,23,06,10,13.80
2010,07,23,06,11,13.80
2010,07,23,06,12,13.80
2010,07,23,06,13,13.90
2010,07,23,06,14,13.90
2010,07,23,06,15,13.90
2010,07,23,06,16,13.90
2010,07,23,06,17,13.90
2010,07,23,06,18,13.90
2010,07,23,06,19,13.90
2010,07,23,06,20,14.00
2010,07,23,06,21,14.00
2010,07,23,06,22,14.00
2010,07,23,06,23,14.10
2010,07,23,06,24,14.10
2010,07,23,06,25,14.10
2010,07,23,06,26,14.10
2010,07,23,06,27,14.20
2010,07,23,06,28,14.20
2010,07,23,06,29,14.20
2010,07,23,06,30,14.20
2010,07,23,06,31,14.20
2010,07,23,06,32,14.30
2010,07,23,06,33,14.30
2010,07,23,06,34,14.30
2010,07,23,06,35,14.30
2010,07,23,06,36,14.30
2010,07,23,06,37,14.40
2010,07,23,06,38,14.40
2010,07,23,06,39,14.40
2010,07,23,06,40,14.40
2010,07,23,06,41,14.40
2010,07,23,06,42,14.40
2010,07,23,06,43,14.40
2010,07,23,06,44,14.40
2010,07,23,06,45,14.40
2010,07,23,06,46,14.40
2010,07,23,06,47,14.50
2010,07,23,06,48,14.50
2010,07,23,06,49,14.50
2010,07,23,06,50,14.50
2010,07,23,06,51,14.50
2010,07,23,06,52,14.60
2010,07,23,06,53,14.60
2010,07,23,06,54,14.60
2010,07,23,06,55,14.60
2010,07,23,06,56,14.70
2010,07,23,06,57,14.70
2010,07,23,06,58,14.70
2010,07,23,06,59,14.70
2010,07,23,07,00,14.70
2010,07,23,07,01,14.70
2010,07,23,07,02,14.70
2010,07,23,07,03,14.70
2010,07,23,07,04,14.70
2010,07,23,07,05,14.80
2010,07,23,07,06,14.90
2010,07,23,07,07,14.90
2010,07,23,07,08,15.00
2010,07,23,07,09,15.00
2010,07,23,07,10,15.00
2010,07,23,07,11,15.00
2010,07,23,07,12,15.00
2010,07,23,07,13,15.00
2010,07,23,07,14,15.00
2010,07,23,07,15,15.00
2010,07,23,07,16,15.10
2010,07,23,07,17,15.10
2010,07,23,07,18,15.10
2010,07,23,07,19,15.20
2010,07,23,07,20,15.10
2010,07,23,07,21,15.10
2010,07,23,07,22,15.10
2010,07,23,07,23,15.20
2010,07,23,07,24,15.10
2010,07,23,07,25,15.10
2010,07,23,07,26,15.10
2010,07,23,07,27,15.10
2010,07,23,07,28,15.10
2010,07,23,07,29,15.10
2010,07,23,07,30,15.20
2010,07,23,07,31,15.20
2010,07,23,07,32,15.20
2010,07,23,07,33,15.30
2010,07,23,07,34,15.30
2010,07,23,07,35,15.40
2010,07,23,07,36,15.40
2010,07,23,07,37,15.50
2010,07,23,07,38,15.50
2010,07,23,07,39,15.50
2010,07,23,07,40,15.40
2010,07,23,07,41,15.40
2010,07,23,07,42,15.40
2010,07,23,07,43,15.40
2010,07,23,07,44,15.40
2010,07,23,07,45,15.50
2010,07,23,07,46,15.50
2010,07,23,07,47,15.50
2010,07,23,07,48,15.50
2010,07,23,07,49,15.60
2010,07,23,07,50,15.60
2010,07,23,07,51,15.60
2010,07,23,07,52,15.60
2010,07,23,07,53,15.60
2010,07,23,07,54,15.70
2010,07,23,07,55,15.70
2010,07,23,07,56,15.70
2010,07,23,07,57,15.70
2010,07,23,07,58,15.70
2010,07,23,07,59,15.70
2010,07,23,08,00,15.70
2010,07,23,08,01,15.80
2010,07,23,08,02,15.80
2010,07,23,08,03,15.80
2010,07,23,08,04,15.80
2010,07,23,08,05,15.90
2010,07,23,08,06,15.90
2010,07,23,08,07,15.90
2010,07,23,08,08,15.80
2010,07,23,08,09,15.80
2010,07,23,08,10,15.80
2010,07,23,08,11,15.90
2010,07,23,08,12,15.90
2010,07,23,08,13,15.90
2010,07,23,08,14,15.90
2010,07,23,08,15,15.80
2010,07,23,08,16,15.80
2010,07,23,08,17,15.90
2010,07,23,08,18,15.90
2010,07,23,08,19,16.00
2010,07,23,08,20,16.00
2010,07,23,08,21,16.10
2010,07,23,08,22,16.10
2010,07,23,08,23,16.00
2010,07,23,08,24,16.00
2010,07,23,08,25,16.10
2010,07,23,08,26,16.10
2010,07,23,08,27,16.10
2010,07,23,08,28,16.10
2010,07,23,08,29,16.20
2010,07,23,08,30,16.30
2010,07,23,08,31,16.30
2010,07,23,08,32,16.30
2010,07,23,08,33,16.40
2010,07,23,08,34,16.40
2010,07,23,08,35,16.50
2010,07,23,08,36,16.50
2010,07,23,08,37,16.60
2010,07,23,08,38,16.60
2010,07,23,08,39,16.70
2010,07,23,08,40,16.80
2010,07,23,08,41,16.80
2010,07,23,08,42,16.90
2010,07,23,08,43,16.90
2010,07,23,08,44,16.90
2010,07,23,08,45,17.00
2010,07,23,08,46,17.00
2010,07,23,08,47,17.00
2010,07,23,08,48,17.10
2010,07,23,08,49,17.20
2010,07,23,08,50,17.20
2010,07,23,08,51,17.20
2010,07,23,08,52,17.20
2010,07,23,08,53,17.10
2010,07,23,08,54,17.10
2010,07,23,08,55,17.10
2010,07,23,08,56,17.20
2010,07,23,08,57,17.20
2010,07,23,08,58,17.30
2010,07,23,08,59,17.30
2010,07,23,09,00,17.40
2010,07,23,09,01,17.40
2010,07,23,09,02,17.50
2010,07,23,09,03,17.50
2010,07,23,09,04,17.50
2010,07,23,09,05,17.60
2010,07,23,09,06,17.60
2010,07,23,09,07,17.60
2010,07,23,09,08,17.70
2010,07,23,09,09,17.70
2010,07,23,09,10,17.70
2010,07,23,09,11,17.80
2010,07,23,09,12,17.90
2010,07,23,09,13,18.00
2010,07,23,09,14,18.10
2010,07,23,09,15,18.00
2010,07,23,09,16,18.00
2010,07,23,09,17,18.10
2010,07,23,09,18,18.00
2010,07,23,09,19,17.90
2010,07,23,09,20,17.90
2010,07,23,09,21,17.90
2010,07,23,09,22,17.90
2010,07,23,09,23,17.90
2010,07,23,09,24,17.90
2010,07,23,09,25,18.00
2010,07,23,09,26,18.00
2010,07,23,09,27,18.00
2010,07,23,09,28,18.00
2010,07,23,09,29,18.00
2010,07,23,09,30,18.10
2010,07,23,09,31,18.10
2010,07,23,09,32,18.20
2010,07,23,09,33,18.20
2010,07,23,09,34,18.20
2010,07,23,09,35,18.30
2010,07,23,09,36,18.30
2010,07,23,09,37,18.30
2010,07,23,09,38,18.30
2010,07,23,09,39,18.30
2010,07,23,09,40,18.30
2010,07,23,09,41,18.40
2010,07,23,09,42,18.40
2010,07,23,09,43,18.40
2010,07,23,09,44,18.40
2010,07,23,09,45,18.40
2010,07,23,09,46,18.30
2010,07,23,09,47,18.30
2010,07,23,09,48,18.40
2010,07,23,09,49,18.40
2010,07,23,09,50,18.40
2010,07,23,09,51,18.40
2010,07,23,09,52,18.40
2010,07,23,09,53,18.50
2010,07,23,09,54,18.50
2010,07,23,09,55,18.50
2010,07,23,09,56,18.60
2010,07,23,09,57,18.70
2010,07,23,09,58,18.80
2010,07,23,09,59,18.90
2010,07,23,10,00,18.90
2010,07,23,10,01,18.90
2010,07,23,10,02,18.90
2010,07,23,10,03,18.80
2010,07,23,10,04,18.80
2010,07,23,10,05,18.90
2010,07,23,10,06,18.90
2010,07,23,10,07,18.90
2010,07,23,10,08,18.80
2010,07,23,10,09,18.80
2010,07,23,10,10,18.80
2010,07,23,10,11,18.80
2010,07,23,10,12,18.80
2010,07,23,10,13,18.80
2010,07,23,10,14,18.80
2010,07,23,10,15,18.70
2010,07,23,10,16,18.70
2010,07,23,10,17,18.70
2010,07,23,10,18,18.70
2010,07,23,10,19,18.70
2010,07,23,10,20,18.70
2010,07,23,10,21,18.70
2010,07,23,10,22,18.80
2010,07,23,10,23,18.80
2010,07,23,10,24,18.80
2010,07,23,10,25,18.70
2010,07,23,10,26,18.80
2010,07,23,10,27,18.80
2010,07,23,10,28,18.90
2010,07,23,10,29,19.00
2010,07,23,10,30,19.10
2010,07,23,10,31,19.10
2010,07,23,10,32,19.10
2010,07,23,10,33,19.10
2010,07,23,10,34,19.10
2010,07,23,10,35,19.10
2010,07,23,10,36,19.10
2010,07,23,10,37,19.00
2010,07,23,10,38,19.00
2010,07,23,10,39,19.10
2010,07,23,10,40,19.20
2010,07,23,10,41,19.20
2010,07,23,10,42,19.30
2010,07,23,10,43,19.40
2010,07,23,10,44,19.60
2010,07,23,10,45,19.70
2010,07,23,10,46,19.70
2010,07,23,10,47,19.70
2010,07,23,10,48,19.80
2010,07,23,10,49,19.80
2010,07,23,10,50,19.80
2010,07,23,10,51,19.80
2010,07,23,10,52,19.80
2010,07,23,10,53,19.90
2010,07,23,10,54,19.90
2010,07,23,10,55,19.90
2010,07,23,10,56,19.80
2010,07,23,10,57,19.80
2010,07,23,10,58,19.80
2010,07,23,10,59,19.80
2010,07,23,11,00,19.90
2010,07,23,11,01,19.90
2010,07,23,11,02,19.90
2010,07,23,11,03,20.00
2010,07,23,11,04,20.00
2010,07,23,11,05,20.10
2010,07,23,11,06,20.20
2010,07,23,11,07,20.30
2010,07,23,11,08,20.30
2010,07,23,11,09,20.20
2010,07,23,11,10,20.20
2010,07,23,11,11,20.20
2010,07,23,11,12,20.20
2010,07,23,11,13,20.10
2010,07,23,11,14,20.10
2010,07,23,11,15,20.10
2010,07,23,11,16,20.10
2010,07,23,11,17,20.10
2010,07,23,11,18,20.20
2010,07,23,11,19,20.20
2010,07,23,11,20,20.30
2010,07,23,11,21,20.30
2010,07,23,11,22,20.20
2010,07,23,11,23,20.20
2010,07,23,11,24,20.20
2010,07,23,11,25,20.20
2010,07,23,11,26,20.30
2010,07,23,11,27,20.30
2010,07,23,11,28,20.30
2010,07,23,11,29,20.30
2010,07,23,11,30,20.30
2010,07,23,11,31,20.40
2010,07,23,11,32,20.40
2010,07,23,11,33,20.50
2010,07,23,11,34,20.50
2010,07,23,11,35,20.50
2010,07,23,11,36,20.40
2010,07,23,11,37,20.30
2010,07,23,11,38,20.20
2010,07,23,11,39,20.20
2010,07,23,11,40,20.20
2010,07,23,11,41,20.20
2010,07,23,11,42,20.20
2010,07,23,11,43,20.20
2010,07,23,11,44,20.30
2010,07,23,11,45,20.40
2010,07,23,11,46,20.60
2010,07,23,11,47,20.70
2010,07,23,11,48,20.60
2010,07,23,11,49,20.60
2010,07,23,11,50,20.70
2010,07,23,11,51,20.60
2010,07,23,11,52,20.50
2010,07,23,11,53,20.40
2010,07,23,11,54,20.40
2010,07,23,11,55,20.50
2010,07,23,11,56,20.60
2010,07,23,11,57,20.70
2010,07,23,11,58,20.70
2010,07,23,11,59,20.70
2010,07,23,12,00,20.70
2010,07,23,12,01,20.40
2010,07,23,12,02,20.20
2010,07,23,12,03,20.10
2010,07,23,12,04,20.10
2010,07,23,12,05,20.00
2010,07,23,12,06,20.00
2010,07,23,12,07,20.00
2010,07,23,12,08,19.90
2010,07,23,12,09,19.90
2010,07,23,12,10,19.90
2010,07,23,12,11,20.00
2010,07,23,12,12,20.00
2010,07,23,12,13,20.00
2010,07,23,12,14,19.90
2010,07,23,12,15,19.90
2010,07,23,12,16,19.90
2010,07,23,12,17,20.00
2010,07,23,12,18,20.20
2010,07,23,12,19,20.40
2010,07,23,12,20,20.50
2010,07,23,12,21,20.50
2010,07,23,12,22,20.50
2010,07,23,12,23,20.40
2010,07,23,12,24,20.50
2010,07,23,12,25,20.50
2010,07,23,12,26,20.60
2010,07,23,12,27,20.70
2010,07,23,12,28,20.70
2010,07,23,12,29,20.80
2010,07,23,12,30,21.00
2010,07,23,12,31,21.10
2010,07,23,12,32,21.20
2010,07,23,12,33,21.20
2010,07,23,12,34,21.30
2010,07,23,12,35,21.40
2010,07,23,12,36,21.30
2010,07,23,12,37,21.30
2010,07,23,12,38,21.30
2010,07,23,12,39,21.30
2010,07,23,12,40,21.20
2010,07,23,12,41,21.10
2010,07,23,12,42,20.90
2010,07,23,12,43,20.80
2010,07,23,12,44,20.80
2010,07,23,12,45,21.00
2010,07,23,12,46,21.00
2010,07,23,12,47,21.00
2010,07,23,12,48,20.90
2010,07,23,12,49,20.90
2010,07,23,12,50,20.90
2010,07,23,12,51,20.80
2010,07,23,12,52,20.70
2010,07,23,12,53,20.70
2010,07,23,12,54,20.80
2010,07,23,12,55,20.80
2010,07,23,12,56,20.90
2010,07,23,12,57,20.90
2010,07,23,12,58,20.80
2010,07,23,12,59,20.80
2010,07,23,13,00,20.80
2010,07,23,13,01,21.00
2010,07,23,13,02,21.10
2010,07,23,13,03,21.20
2010,07,23,13,04,21.20
2010,07,23,13,05,21.20
2010,07,23,13,06,21.20
2010,07,23,13,07,21.10
2010,07,23,13,08,20.90
2010,07,23,13,09,20.80
2010,07,23,13,10,20.80
2010,07,23,13,11,20.70
2010,07,23,13,12,20.80
2010,07,23,13,13,20.90
2010,07,23,13,14,20.80
2010,07,23,13,15,20.80
2010,07,23,13,16,20.70
2010,07,23,13,17,20.80
2010,07,23,13,18,20.80
2010,07,23,13,19,21.00
2010,07,23,13,20,21.20
2010,07,23,13,21,21.40
2010,07,23,13,22,21.50
2010,07,23,13,23,21.60
2010,07,23,13,24,21.60
2010,07,23,13,25,21.70
2010,07,23,13,26,21.70
2010,07,23,13,27,21.70
2010,07,23,13,28,21.70
2010,07,23,13,29,21.70
2010,07,23,13,30,21.80
2010,07,23,13,31,21.80
2010,07,23,13,32,21.80
2010,07,23,13,33,21.80
2010,07,23,13,34,21.80
2010,07,23,13,35,21.70
2010,07,23,13,36,21.60
2010,07,23,13,37,21.40
2010,07,23,13,38,21.40
2010,07,23,13,39,21.50
2010,07,23,13,40,21.60
2010,07,23,13,41,21.70
2010,07,23,13,42,21.80
2010,07,23,13,43,21.80
2010,07,23,13,44,21.80
2010,07,23,13,45,21.80
2010,07,23,13,46,21.80
2010,07,23,13,47,21.90
2010,07,23,13,48,22.00
2010,07,23,13,49,22.10
2010,07,23,13,50,22.10
2010,07,23,13,51,22.20
2010,07,23,13,52,22.20
2010,07,23,13,53,22.20
2010,07,23,13,54,22.20
2010,07,23,13,55,22.10
2010,07,23,13,56,22.10
2010,07,23,13,57,22.10
2010,07,23,13,58,22.10
2010,07,23,13,59,22.10
2010,07,23,14,00,22.10
2010,07,23,14,01,22.20
2010,07,23,14,02,22.20
2010,07,23,14,03,22.20
2010,07,23,14,04,22.20
2010,07,23,14,05,22.20
2010,07,23,14,06,22.20
2010,07,23,14,07,22.10
2010,07,23,14,08,21.90
2010,07,23,14,09,21.90
2010,07,23,14,10,21.90
2010,07,23,14,11,21.80
2010,07,23,14,12,21.80
2010,07,23,14,13,21.70
2010,07,23,14,14,21.60
2010,07,23,14,15,21.70
2010,07,23,14,16,21.60
2010,07,23,14,17,21.60
2010,07,23,14,18,21.60
2010,07,23,14,19,21.70
2010,07,23,14,20,21.60
2010,07,23,14,21,21.50
2010,07,23,14,22,21.50
2010,07,23,14,23,21.50
2010,07,23,14,24,21.70
2010,07,23,14,25,21.90
2010,07,23,14,26,22.10
2010,07,23,14,27,22.10
2010,07,23,14,28,22.10
2010,07,23,14,29,22.10
2010,07,23,14,30,22.00
2010,07,23,14,31,22.00
2010,07,23,14,32,22.00
2010,07,23,14,33,21.80
2010,07,23,14,34,21.70
2010,07,23,14,35,21.70
2010,07,23,14,36,21.80
2010,07,23,14,37,21.90
2010,07,23,14,38,21.90
2010,07,23,14,39,21.90
2010,07,23,14,40,21.90
2010,07,23,14,41,21.80
2010,07,23,14,42,21.70
2010,07,23,14,43,21.60
2010,07,23,14,44,21.60
2010,07,23,14,45,21.60
2010,07,23,14,46,21.50
2010,07,23,14,47,21.60
2010,07,23,14,48,21.80
2010,07,23,14,49,21.90
2010,07,23,14,50,22.10
2010,07,23,14,51,22.10
2010,07,23,14,52,22.00
2010,07,23,14,53,22.10
2010,07,23,14,54,22.20
2010,07,23,14,55,22.30
2010,07,23,14,56,22.30
2010,07,23,14,57,22.40
2010,07,23,14,58,22.30
2010,07,23,14,59,22.30
2010,07,23,15,00,22.30
2010,07,23,15,01,22.30
2010,07,23,15,02,22.30
2010,07,23,15,03,22.10
2010,07,23,15,04,22.00
2010,07,23,15,05,21.90
2010,07,23,15,06,21.90
2010,07,23,15,07,22.00
2010,07,23,15,08,22.10
2010,07,23,15,09,22.10
2010,07,23,15,10,22.10
2010,07,23,15,11,22.00
2010,07,23,15,12,22.10
2010,07,23,15,13,22.10
2010,07,23,15,14,22.10
2010,07,23,15,15,22.20
2010,07,23,15,16,22.30
2010,07,23,15,17,22.30
2010,07,23,15,18,22.30
2010,07,23,15,19,22.30
2010,07,23,15,20,22.30
2010,07,23,15,21,22.20
2010,07,23,15,22,22.30
2010,07,23,15,23,22.20
2010,07,23,15,24,22.20
2010,07,23,15,25,22.10
2010,07,23,15,26,21.90
2010,07,23,15,27,21.70
2010,07,23,15,28,21.60
2010,07,23,15,29,21.50
2010,07,23,15,30,21.30
2010,07,23,15,31,21.20
2010,07,23,15,32,21.20
2010,07,23,15,33,21.20
2010,07,23,15,34,21.10
2010,07,23,15,35,21.20
2010,07,23,15,36,21.30
2010,07,23,15,37,21.40
2010,07,23,15,38,21.50
2010,07,23,15,39,21.60
2010,07,23,15,40,21.70
2010,07,23,15,41,21.80
2010,07,23,15,42,21.80
2010,07,23,15,43,21.90
2010,07,23,15,44,22.00
2010,07,23,15,45,22.00
2010,07,23,15,46,21.90
2010,07,23,15,47,21.80
2010,07,23,15,48,21.80
2010,07,23,15,49,21.70
2010,07,23,15,50,21.70
2010,07,23,15,51,21.70
2010,07,23,15,52,21.70
2010,07,23,15,53,21.80
2010,07,23,15,54,21.80
2010,07,23,15,55,21.80
2010,07,23,15,56,21.90
2010,07,23,15,57,22.20
2010,07,23,15,58,22.40
2010,07,23,15,59,22.60
2010,07,23,16,00,22.70
2010,07,23,16,01,22.90
2010,07,23,16,02,23.10
2010,07,23,16,03,23.20
2010,07,23,16,04,23.40
2010,07,23,16,05,23.50
2010,07,23,16,06,23.60
2010,07,23,16,07,23.60
2010,07,23,16,08,23.70
2010,07,23,16,09,23.70
2010,07,23,16,10,23.80
2010,07,23,16,11,23.90
2010,07,23,16,12,24.10
2010,07,23,16,13,24.20
2010,07,23,16,14,24.40
2010,07,23,16,15,24.50
2010,07,23,16,16,24.60
2010,07,23,16,17,24.60
2010,07,23,16,18,24.60
2010,07,23,16,19,24.70
2010,07,23,16,20,24.70
2010,07,23,16,21,24.70
2010,07,23,16,22,24.70
2010,07,23,16,23,24.70
2010,07,23,16,24,24.80
2010,07,23,16,25,24.90
2010,07,23,16,26,25.00
2010,07,23,16,27,25.10
2010,07,23,16,28,25.20
2010,07,23,16,29,25.30
2010,07,23,16,30,25.30
2010,07,23,16,31,25.30
2010,07,23,16,32,25.30
2010,07,23,16,33,25.30
2010,07,23,16,34,25.30
2010,07,23,16,35,25.40
2010,07,23,16,36,25.40
2010,07,23,16,37,25.40
2010,07,23,16,38,25.40
2010,07,23,16,39,25.30
2010,07,23,16,40,25.20
2010,07,23,16,41,25.20
2010,07,23,16,42,25.20
2010,07,23,16,43,25.30
2010,07,23,16,44,25.30
2010,07,23,16,45,25.40
2010,07,23,16,46,25.40
2010,07,23,16,47,25.50
2010,07,23,16,48,25.60
2010,07,23,16,49,25.60
2010,07,23,16,50,25.60
2010,07,23,16,51,25.50
2010,07,23,16,52,25.50
2010,07,23,16,53,25.50
2010,07,23,16,54,25.50
2010,07,23,16,55,25.50
2010,07,23,16,56,25.50
2010,07,23,16,57,25.50
2010,07,23,16,58,25.60
2010,07,23,16,59,25.70
2010,07,23,17,00,25.80
2010,07,23,17,01,25.80
2010,07,23,17,02,25.90
2010,07,23,17,03,25.90
2010,07,23,17,04,25.90
2010,07,23,17,05,25.90
2010,07,23,17,06,25.90
2010,07,23,17,07,25.90
2010,07,23,17,08,25.90
2010,07,23,17,09,25.80
2010,07,23,17,10,25.70
2010,07,23,17,11,25.60
2010,07,23,17,12,25.60
2010,07,23,17,13,25.50
2010,07,23,17,14,25.50
2010,07,23,17,15,25.50
2010,07,23,17,16,25.50
2010,07,23,17,17,25.50
2010,07,23,17,18,25.50
2010,07,23,17,19,25.40